Find Starlink 1497

NORAD ID: 45781 Int'l Des: 2020-038 Owner: SPXS Country: US Constellation: starlink decayed
LEOCIRCULAR
Vis

Historical Track — 12. Feb. 2026

3D-Globus wird geladen...

Über Starlink 1497

Beschreibung wird geladen...

Höhenverlauf

Loading altitude history...

Zweizeiliger Elementsatz

1 45781U 20038BD 26043.42871565 .15800035 12699-4 16747-3 0 9992
2 45781 53.0082 203.1300 0004619 305.8625 54.1996 16.50362636314441
Epoch: 12. Feb. 2026 • Age: 2151 hours

Aktueller Status

Position data unavailable
Startdatum 13. Juni 2020
Alter 5.9 years
Verglühungsdatum 12. Feb. 2026
Typ internet

Technische Details

Klassifizierung Payload
Masse 260.00 kg
Trockenmasse 248.00 kg
Gesamtmasse 260.00 kg
Länge 0.20 m
Durchmesser 2.80 m
Spannweite 9.00 m
Form Box + pan
Hersteller SPXS
Bus-Typ Starlink
Phasenstatus Unknown Transfer Status
Besitzer/Staat SPXS/US

Most Searched